| time (UTC) | temp F | wind direction | speed MPH | gust MPH | rain 1hr in | rain 24hr in | rain mn in | humidity % | barometer mb |
| 20260502233029 | 77 | 198 | 0.0 | 10.0 | 0.00 | 0.39 | 0.00 | 44 | 1019.6 |
| 20260502231529 | 77 | 286 | 3.0 | 12.0 | 0.00 | 0.39 | 0.00 | 43 | 1019.7 |
| 20260502230028 | 77 | 61 | 3.0 | 11.0 | 0.00 | 0.39 | 0.00 | 44 | 1019.5 |
| 20260502224527 | 77 | 338 | 3.0 | 10.0 | 0.00 | 0.47 | 0.00 | 44 | 1019.5 |
| 20260502223029 | 77 | 319 | 2.0 | 9.0 | 0.00 | 0.47 | 0.00 | 44 | 1019.5 |
| 20260502221528 | 77 | 313 | 2.0 | 10.0 | 0.00 | 0.47 | 0.00 | 44 | 1019.6 |
| 20260502220029 | 77 | 290 | 2.0 | 10.0 | 0.00 | 0.47 | 0.00 | 44 | 1019.7 |
| 20260502214536 | 78 | 103 | 1.0 | 11.0 | 0.00 | 0.90 | 0.00 | 44 | 1019.7 |
| 20260502213030 | 77 | 329 | 4.0 | 15.0 | 0.00 | 0.90 | 0.00 | 43 | 1019.7 |
| 20260502211529 | 77 | 282 | 3.0 | 11.0 | 0.00 | 0.90 | 0.00 | 43 | 1019.8 |
| 20260502210031 | 77 | 292 | 3.0 | 12.0 | 0.00 | 0.90 | 0.00 | 44 | 1020.1 |
| 20260502204528 | 77 | 107 | 3.0 | 10.0 | 0.00 | 1.28 | 0.00 | 43 | 1020.0 |
| 20260502203027 | 77 | 331 | 4.0 | 12.0 | 0.00 | 1.28 | 0.00 | 44 | 1020.2 |
| 20260502201529 | 76 | 322 | 3.0 | 11.0 | 0.00 | 1.28 | 0.00 | 46 | 1020.4 |
| 20260502200027 | 76 | 69 | 3.0 | 13.0 | 0.00 | 1.28 | 0.00 | 46 | 1020.6 |
| 20260502194527 | 76 | 42 | 2.0 | 10.0 | 0.00 | 1.42 | 0.00 | 47 | 1020.9 |
| 20260502193029 | 75 | 104 | 3.0 | 11.0 | 0.00 | 1.42 | 0.00 | 46 | 1021.1 |
| 20260502191531 | 75 | 256 | 3.0 | 18.0 | 0.00 | 1.42 | 0.00 | 47 | 1021.3 |
| 20260502190032 | 75 | 320 | 3.0 | 15.0 | 0.00 | 1.42 | 0.00 | 48 | 1021.0 |
| 20260502184533 | 74 | 39 | 3.0 | 17.0 | 0.00 | 2.48 | 0.00 | 48 | 1021.2 |
| 20260502183028 | 75 | 326 | 3.0 | 10.0 | 0.00 | 2.48 | 0.00 | 49 | 1021.1 |
| 20260502181528 | 74 | 321 | 4.0 | 11.0 | 0.00 | 2.48 | 0.00 | 48 | 1021.4 |
| 20260502163032 | 70 | 333 | 2.0 | 11.0 | 0.00 | 2.92 | 0.00 | 59 | 1021.9 |
| 20260502161527 | 69 | 11 | 3.0 | 9.0 | 0.00 | 2.92 | 0.00 | 60 | 1021.8 |
| 20260502151530 | 66 | 11 | 2.0 | 12.0 | 0.00 | 2.94 | 0.00 | 72 | 1021.7 |
| 20260502123030 | 54 | 304 | 1.0 | 5.0 | 0.00 | 3.04 | 0.00 | 90 | 1020.5 |
| 20260502121532 | 54 | 0 | 1.0 | 5.0 | 0.00 | 3.04 | 0.00 | 90 | 1020.2 |
| 20260502114544 | 53 | 0 | 0.0 | 2.0 | 0.00 | 3.05 | 0.00 | 89 | 1020.2 |
| 20260502113030 | 54 | 0 | 0.0 | 3.0 | 0.00 | 3.05 | 0.00 | 89 | 1020.0 |
| 20260502111528 | 54 | 313 | 1.0 | 6.0 | 0.00 | 3.05 | 0.00 | 89 | 1019.7 |
| 20260502110029 | 54 | 297 | 1.0 | 6.0 | 0.00 | 3.05 | 0.00 | 89 | 1019.5 |
| 20260502104527 | 54 | 304 | 1.0 | 6.0 | 0.00 | 3.14 | 0.00 | 89 | 1019.3 |
| 20260502103029 | 54 | 0 | 1.0 | 4.0 | 0.00 | 3.14 | 0.00 | 88 | 1019.2 |
| 20260502101530 | 54 | 0 | 0.0 | 4.0 | 0.00 | 3.14 | 0.00 | 88 | 1019.1 |
| 20260502091528 | 55 | 42 | 0.0 | 7.0 | 0.00 | 3.28 | 0.00 | 86 | 1018.2 |
| 20260502071530 | 56 | 0 | 0.0 | 8.0 | 0.00 | 3.66 | 0.00 | 89 | 1017.9 |
| 20260502070033 | 56 | 327 | 1.0 | 9.0 | 0.00 | 3.66 | 0.00 | 89 | 1017.8 |
| 20260502064543 | 56 | 30 | 1.0 | 9.0 | 0.00 | 3.68 | 0.00 | 90 | 1017.8 |
| 20260502063029 | 56 | 37 | 2.0 | 8.0 | 0.00 | 3.68 | 0.00 | 90 | 1017.5 |
| 20260502061530 | 56 | 43 | 2.0 | 11.0 | 0.00 | 3.68 | 0.00 | 90 | 1017.6 |
| 20260502060042 | 56 | 42 | 1.0 | 6.0 | 0.00 | 3.68 | 0.00 | 91 | 1017.3 |
| 20260502054531 | 56 | 315 | 1.0 | 8.0 | 0.00 | 3.91 | 0.00 | 91 | 1017.4 |
| 20260502053031 | 56 | 11 | 2.0 | 8.0 | 0.00 | 3.91 | 0.00 | 91 | 1017.4 |
| 20260502051534 | 56 | 24 | 3.0 | 12.0 | 0.00 | 3.91 | 0.00 | 92 | 1017.3 |
| 20260502050033 | 56 | 338 | 1.0 | 13.0 | 0.00 | 3.91 | 0.00 | 92 | 1017.2 |
| 20260502044532 | 56 | 292 | 2.0 | 9.0 | 0.00 | 3.91 | 3.91 | 92 | 1017.5 |
| 20260502043034 | 56 | 0 | 2.0 | 12.0 | 0.00 | 3.91 | 3.91 | 92 | 1017.5 |
| 20260502041537 | 56 | 310 | 2.0 | 10.0 | 0.00 | 3.91 | 3.91 | 92 | 1017.4 |
| 20260502040031 | 56 | 321 | 2.0 | 9.0 | 0.00 | 3.91 | 3.91 | 93 | 1017.4 |
| 20260502034532 | 56 | 11 | 3.0 | 11.0 | 0.01 | 3.91 | 3.91 | 93 | 1017.1 |
| 20260502033033 | 56 | 337 | 2.0 | 11.0 | 0.01 | 3.91 | 3.91 | 93 | 1017.1 |
| 20260502031532 | 56 | 268 | 3.0 | 12.0 | 0.02 | 3.91 | 3.91 | 93 | 1016.5 |
| 20260502030030 | 57 | 38 | 1.0 | 10.0 | 0.04 | 3.91 | 3.91 | 93 | 1015.9 |
| 20260502024533 | 57 | 321 | 2.0 | 9.0 | 0.04 | 3.90 | 3.90 | 93 | 1016.0 |
| 20260502023032 | 57 | 13 | 2.0 | 8.0 | 0.04 | 3.90 | 3.90 | 93 | 1015.6 |
| 20260502021530 | 58 | 9 | 2.0 | 10.0 | 0.06 | 3.89 | 3.89 | 93 | 1015.8 |
| 20260502020033 | 58 | 0 | 1.0 | 9.0 | 0.06 | 3.87 | 3.87 | 93 | 1015.7 |
| 20260502014530 | 58 | 355 | 2.0 | 10.0 | 0.06 | 3.86 | 3.86 | 93 | 1015.3 |
| 20260502013030 | 59 | 319 | 3.0 | 10.0 | 0.06 | 3.86 | 3.86 | 93 | 1014.7 |
| 20260502011528 | 59 | 0 | 2.0 | 10.0 | 0.05 | 3.83 | 3.83 | 93 | 1014.5 |
| 20260502010031 | 59 | 304 | 3.0 | 9.0 | 0.12 | 3.81 | 3.81 | 93 | 1014.5 |
| 20260502004536 | 59 | 56 | 2.0 | 9.0 | 0.17 | 3.80 | 3.80 | 93 | 1013.4 |
| 20260502003030 | 59 | 355 | 2.0 | 8.0 | 0.21 | 3.80 | 3.80 | 93 | 1013.2 |
| 20260502001530 | 59 | 11 | 3.0 | 9.0 | 0.24 | 3.78 | 3.78 | 93 | 1013.4 |
| 20260502000029 | 59 | 275 | 1.0 | 5.0 | 0.16 | 3.68 | 3.68 | 93 | 1013.6 |
| 20260501234531 | 59 | 11 | 5.0 | 14.0 | 0.11 | 3.63 | 3.63 | 93 | 1012.4 |